Overview Statistics Trail Chart Weather Telemetry Raw packets
 

This is the latest recevied weather packets stored in our database for station/object VK6WB. If no packets are shown the sender has not sent any weather packets the latest 10 day(s).

<< 1 2 3 4 >>
Time Temp. Humidity Pressure Rain* Wind** Luminosity Snow
1777748405 8.89° C 43% 1021 hPa 0 mm - 735 W/m² -
1777747805 9.44° C 44% 1021.1 hPa 0 mm - 787 W/m² -
1777747206 9.44° C 45% 1021.1 hPa 0 mm - 787 W/m² -
1777746605 9.44° C 47% 1021 hPa 0 mm - 787 W/m² -
1777746005 10° C 47% 1021 hPa 0 mm - 787 W/m² -
1777745405 10° C 49% 1021.1 hPa 0 mm - 787 W/m² -
1777744805 10.56° C 49% 1021.2 hPa 0 mm - 839 W/m² -
1777744205 10.56° C 49% 1021 hPa 0 mm - 839 W/m² -
1777743605 11.11° C 50% 1021.2 hPa 0 mm - 839 W/m² -
1777743006 11.11° C 50% 1021.1 hPa 0 mm - 890 W/m² -
1777742405 11.11° C 51% 1021 hPa 0 mm - 890 W/m² -
1777741806 11.11° C 52% 1021 hPa 0 mm - 891 W/m² -
1777741205 11.11° C 53% 1021.2 hPa 0 mm - 942 W/m² -
1777740605 11.11° C 55% 1021 hPa 0 mm - 942 W/m² -
1777740005 11.11° C 56% 1020.9 hPa 0 mm - 994 W/m² -
1777739406 11.11° C 58% 1020.9 hPa 0 mm - 994 W/m² -
1777738805 11.11° C 59% 1020.9 hPa 0 mm - 994 W/m² -
1777738205 11.11° C 60% 1021 hPa 0 mm - 994 W/m² -
1777737606 11.11° C 61% 1021.2 hPa 0 mm - 995 W/m² -
1777737005 11.11° C 62% 1021 hPa 0 mm - 943 W/m² -
1777736405 11.11° C 63% 1021 hPa 0 mm - 891 W/m² -
1777735805 11.67° C 63% 1021 hPa 0 mm - 787 W/m² -
1777735205 11.67° C 64% 1021.2 hPa 0 mm - 735 W/m² -
1777734605 11.67° C 65% 1021.3 hPa 0 mm - 684 W/m² -
1777734006 11.67° C 66% 1021.3 hPa 0 mm - 633 W/m² -

* Rain latest hour (hover to see other rain measurements)
** Current wind speed in m/s (hover to see current wind gust speed)